Regional Weather Roundup
Issued by NWS Wakefield, VA

Home | Current Version | Previous Version | Text Only | Print | Product List | Glossary Off
Versions: 1 2 3 4 5 6 7 8 9 10 11 12 13 14 15 16 17 18 19 20 21 22 23 24 25 26 27 28 29 30 31 32 33 34 35 36 37 38 39 40 41 42 43 44 45 46 47 48 49 50

000
ASUS41 KAKQ 252016
RWRAKQ

REGIONAL WEATHER ROUNDUP
NATIONAL WEATHER SERVICE WAKEFIELD VA
400 PM EDT TUE JUL 25 2017

Note: "fair" indicates few or no clouds below 12,000 feet with no
significant weather and/or obstructions to visibility. * = Denotes
station may not report precipitation (e.g., rain,snow,etc.),
thunder or fog.

VAZ042-051-052>054-056-252100-
NORTHERN VIRGINIA

CITY           SKY/WX    TMP DP  RH WIND       PRES   REMARKS
WASH NATIONAL  PTSUNNY   80  63  55 N15       30.12R
DULLES         PTSUNNY   78  61  55 NW9       30.13S
FORT BELVOIR   CLOUDY    81  60  48 NW9       30.11S
QUANTICO       PTSUNNY   82  63  52 NE7       30.12S
FREDERICKSBRG* PTSUNNY   80  62  54 N9        30.11S
STAFFORD*      CLOUDY    79  61  52 NE7       30.16S
WARRENTON      MOSUNNY   81  58  45 NW8       30.13S
CULPEPER*      SUNNY     80  62  55 N9        30.14S
MANASSAS*      MOSUNNY   79  63  57 N12       30.13S
LEESBURG*      CLOUDY    81  63  54 NW12      30.15S
WINCHESTER     CLOUDY    72  57  60 NW7       30.17R
FRONT ROYAL*   PTCLDY    77  59  53 CALM      30.15S
LURAY*         CLEAR     79  57  47 NE8       30.15S
$$

VAZ048-049-060>072-079>083-252100-
CENTRAL AND SOUTH CENTRAL VIRGINIA

CITY           SKY/WX    TMP DP  RH WIND       PRES   REMARKS
RICHMOND       PTSUNNY   86  60  41 N12G20    30.09S
CHESTERFIELD*  NOT AVBL
PETERSBURG*    PTSUNNY   87  58  37 CALM      30.08S
HANOVER        MOSUNNY   84  58  40 N8        30.11R
TAPPAHANNOCK*  MOSUNNY   83  40  22 N10       30.11S
QUINTON*       FAIR      84  61  44 N6        30.08S
CHARLOTTSVILLE SUNNY     86  60  41 E12       30.11S
GORDONSVILLE*  CLEAR     83  60  46 E8        30.11S
ORANGE*        SUNNY     81  59  47 NE3       30.13S
LOUISA*        SUNNY     84  55  37 NE9       30.11S
BUMPASS*       FAIR      82  59  45 NE3       30.11S
FARMVILLE*     MOSUNNY   89  50  26 N5        30.07R
CREWE*         FAIR      87  56  33 NE7       30.08S
FORT PICKETT*  FAIR     N/A N/A N/A N6        30.08S
CHASE CITY*    FAIR      89  61  38 CALM      30.08S
CLARKSVILLE*   FAIR      88  63  42 CALM      30.07S
SOUTH HILL*    MOSUNNY   88  63  42 SE5       30.12S
LAWRENCEVILLE* FAIR      88  63  43 CALM      30.06S
EMPORIA*       CLOUDY    86  66  51 NE6       30.08S
$$

VAZ088>098-252100-
SOUTHEAST VIRGINIA

CITY           SKY/WX    TMP DP  RH WIND       PRES   REMARKS
NORFOLK        CLOUDY    81  65  58 NE13      30.08S
VIRGINIA BEACH PTSUNNY   81  62  52 N9        30.07S
NORFOLK NAVAL  CLOUDY    83  65  54 NE10      30.10S
WEST POINT*    SUNNY     87  56  34 N8        30.10S
SALUDA*        FAIR      81  64  55 N10       30.08S
NEWPORT NEWS   MOSUNNY   85  65  51 E9        30.07S
LANGLEY AFB    MOSUNNY   82  66  60 E14       30.07F
FORT EUSTIS    MOSUNNY   93  62  36 N7        30.05S
WILLIAMSBURG*  SUNNY     93  59  31 CALM      30.08S
HR EXEC AP*    FAIR      84  66  54 NE6       30.04S
FRANKLIN*      CLOUDY    84  70  61 NE6       30.07S
US460-WAKEFLD  NOT AVBL
$$

VAZ020-022-025-037-045-252100-
WEST CENTRAL AND SOUTHWEST VIRGINIA

CITY           SKY/WX    TMP DP  RH WIND       PRES   REMARKS
STAUNTON*      SUNNY     83  57  42 NE7       30.15S
WAYNESBORO*    CLEAR     84  59  43 NW5       30.14S
HOT SPRINGS VA SUNNY     77  28  16 CALM      30.26S
LYNCHBURG      SUNNY     88  60  38 VRB3      30.10S
DANVILLE       CLOUDY    89  63  41 NE5       30.08S
SOUTH BOSTON*  FAIR      89  61  39 SW5       30.07S
MARTINSVILLE   SUNNY     89  58  35 CALM      30.11F
ROANOKE        SUNNY     90  55  30 N7        30.12S
BLACKSBURG     SUNNY     83  56  39 NW5       30.20S
DUBLIN*        MOSUNNY   85  45  24 CALM      30.19R
MARION*        MOSUNNY   82  57  42 W7        30.23S
HILLSVILLE*    MOSUNNY   81  48  31 CALM      30.19S
RICHLANDS*     FAIR      80  57  46 N5        30.23S
WISE*          PTSUNNY   81  63  54 N8        30.23S
ABINGDON*      SUNNY     87  63  44 N5        30.18S
$$

MDZ021>025-VAZ099-100-252100-
SOUTHERN MARYLAND AND THE DELMARVA PENINSULA

CITY           SKY/WX    TMP DP  RH WIND       PRES   REMARKS
PATUXENT RIVER PTSUNNY   81  65  58 N12       30.10S
BAY BRIDGE APT PTSUNNY   79  64  61 N7        30.11R
LEONARDTOWN    PTSUNNY   77  63  61 N5        30.12S
DOVER          PTSUNNY   78  78 100 NW7       30.08R
GEORGETOWN     PTSUNNY   82  62  50 N8        30.10R
EASTON         PTSUNNY   81  63  54 NW9       30.14R
CAMBRIDGE      PTSUNNY   81  63  54 N10       30.09S
SALISBURY      PTSUNNY   79  65  62 N9        30.09R
OCEAN CITY     PTSUNNY   78  66  66 NE9       30.09R
WALLOPS ISLAND CLOUDY    80  69  69 NE10      30.09R
ACCOMACK*      CLOUDY    81  64  57 N8G17     30.09R
$$

NCZ012>017-030>032-252100-
NORTH CENTRAL AND EASTERN NORTH CAROLINA

CITY           SKY/WX    TMP DP  RH WIND       PRES   REMARKS
ROANOKE RAPIDS MOCLDY    86  70  58 CALM      30.06S
RALEIGH        PTSUNNY   91  65  41 NE3       30.07S
ELIZABETH CITY MOSUNNY   84  71  65 E10       30.07S
AHOSKIE*         N/A     85  72  64 NE5       30.06S
EDENTON*       PTSUNNY   86  74  68 E8        30.07S
CURRITUCK*     MOSUNNY   83  65  56 E8        30.08S
KILL DEVIL HLS MOSUNNY   79  64  60 CALM      30.08R
MANTEO         MOSUNNY   81  65  59 NE12G17   30.09R
CAPE HATTERAS  CLOUDY    81  73  76 NE9G17    30.06F
TARBORO*       NOT AVBL
GOLDSBORO      MOSUNNY   92  69  45 N5        30.03S HX  97
WASHINGTON     PTSUNNY   87  76  69 NE7       30.05S HX  97
GREENVILLE     MOSUNNY   91  72  52 N7        30.06S HX  98
NEW BERN       MOSUNNY   94  75  54 VRB6      30.04S HX 105
WILMINGTON     MOSUNNY   88  76  67 SE7       30.03S HX  99
$$

VAZ048-252100-
ELSEWHERE

CITY           SKY/WX    TMP DP  RH WIND       PRES   REMARKS
HARRISBURG PA  PTSUNNY   77  61  57 NW10      30.12S
BALTIMORE      PTSUNNY   78  62  57 NW8       30.11R
ANNAPOLIS      CLOUDY    79  66  64 N6        30.10R
ANDREWS AFB    PTSUNNY   78  61  55 NW7       30.11R
PHILADELPHIA   CLOUDY    77  62  59 E6        30.10R
HENDERSON NC   PTSUNNY   87  61  42 E5        30.07F
GREENSBORO     CLOUDY    89  67  47 E7        30.08F
ROCKY MOUNT    PTSUNNY   88  73  61 E5        30.05S HX  95
$$

VAZ100-252100-
MARINE

STATION/POSITION TIME  TEMP    WIND        PRES    WAVE   SWELL
                       AIR SEA DIR/SP/G            HT/PER HT/PER
                 (UTC) (F)     (DEG/KT/KT) (MB)    (FT/S) (FT/S)
BRANDYWINE LGT   1942   75      10/  5/  6 1019.5R
CAPE MAY NJ      1942   74 74  110/  5/  8 1018.6R
LEWES DE         1942   75 76   30/  4/  6 1018.9R
15NM E FENWICK I 1950   75 77  360/ 12/ 14 1019.1R   3/ 7   2/ 7
OCEAN-CITY-INLET 1942   76 73   70/ 11/ 14 1019.1R
WACHAPREAGUE VA  1942   81 84   10/  9/ 13 1018.5R
THOMAS POINT MD  2000   77 83   10/  9/ 11   N/A
GOOSES REEF MD   2000   79 84   30/ 10/ 12 1021.4    1
COVE POINT MD    1942   77     360/  9/ 12 1019.9S
SOLOMONS ISLAND  1942   78 84   10/  7/ 13   N/A
BISHOPS HEAD MD  1942   79 84  320/  6/ 10 1019.1S
PINEY POINT MD   1948           30/  8/ 10   N/A
POTOMAC MD       1840   77      30/ 10/ 14 1018.1
CAMBRIDGE MD     1942   82 86              1019.9R
LEWISETTA VA     1942   79 83  340/  6/  8 1019.0F
RAPPAHANNOCK LGT 1936          350/ 17/ 20 1019.3S
STINGRAY PT      2000   79 84   40/ 14/ 17 1018.9    2/ 3
YORK RVR RNG VA  1942   79      70/ 15/ 17 1018.7S
YORKTOWN VA      1942   82 83   60/  5/  8 1018.1S
JAMESTOWN VA     2000      87  340/  8/ 14   N/A
DOMINION TERM VA 1942   81      70/  3/  9 1018.7R
KIPTOPEKE VA     1936      76   40/  9/ 11   N/A
CHES BAY BRIDGE  1936   76 76   40/ 13/ 15 1018.6R
CAPE HENRY VA    1936   77     350/ 12/ 13   N/A
WILLOUBY STN VA  1936   78      60/ 12/ 13 1018.7S
S CRANEY ISL VA  1936   79      60/ 11/ 13 1018.4S
CAPE HENRY BUOY  2000      72                N/A     2/ 6
1ST LANDING BUOY 2000   78 77              1018.8    2/ 3
64NM E OF VA BCH 1950   76 78  350/ 12/ 14 1018.9R   3/ 5   2/ 7
DUCK PIER NC     1936   76 75   40/ 12/ 15 1018.4S
44100 DUCK FRF   1905      75                N/A     3/ 3
44056 DUCK FRF   2000      76                N/A     2/ 6
OREGON INLET NC  1936   76 71   20/ 12/ 15 1018.5R
HATTERAS NC      1936   80 79   40/  7/ 12 1018.2S
DIAMOND SHLS NC  1950   80 84  360/ 10/ 12 1017.8F   3/ 7   3/ 7
CAPE LOOKOUT NC  2000   84     220/  8/ 10 1017.1S
$$



USA.gov is the U.S. government's official web portal to all federal, state and local government web resources and services.